This is the latest recevied weather packets stored in our database for station/object HB9TJR-3. If no packets are shown the sender has not sent any weather packets the latest 10 day(s).
| Time | Temp. | Humidity | Pressure | Rain* | Wind** | Luminosity | Snow |
|---|---|---|---|---|---|---|---|
| 1777716456 | 13.89° C | 78% | 872.1 hPa | 0 mm | - | - | - |
| 1777715494 | 13.89° C | 79% | 872.2 hPa | 0 mm | - | - | - |
| 1777714535 | 13.89° C | 81% | 872.3 hPa | 0 mm | - | - | - |
| 1777712616 | 13.89° C | 80% | 872.3 hPa | 0 mm | - | - | - |
| 1777710694 | 14.44° C | 79% | 872.4 hPa | 0 mm | - | - | - |
| 1777709734 | 14.44° C | 78% | 872.4 hPa | 0 mm | - | - | - |
| 1777707814 | 14.44° C | 75% | 872.4 hPa | 0 mm | - | - | - |
| 1777706854 | 13.89° C | 74% | 872.4 hPa | 0 mm | - | - | - |
| 1777705895 | 13.89° C | 76% | 872.5 hPa | 0 mm | - | - | - |
| 1777704934 | 13.33° C | 78% | 872.6 hPa | 0 mm | - | - | - |
| 1777703978 | 13.33° C | 77% | 872.7 hPa | 0 mm | - | - | - |
| 1777703016 | 12.78° C | 79% | 872.6 hPa | 0 mm | - | - | - |
| 1777702056 | 12.22° C | 79% | 872.6 hPa | 0 mm | - | - | - |
| 1777701094 | 12.22° C | 77% | 872.6 hPa | 0 mm | - | - | - |
| 1777700134 | 12.22° C | 80% | 872.6 hPa | 0 mm | - | - | - |
| 1777699174 | 11.11° C | 79% | 872.4 hPa | 0 mm | - | - | - |
| 1777698215 | 11.11° C | 80% | 872.4 hPa | 0 mm | - | - | - |
| 1777697254 | 10.56° C | 79% | 872.3 hPa | 0 mm | - | - | - |
| 1777696294 | 10.56° C | 79% | 872.3 hPa | 0 mm | - | - | - |
| 1777695334 | 10.56° C | 79% | 872.4 hPa | 0 mm | - | - | - |
| 1777694374 | 10.56° C | 78% | 872.3 hPa | 0 mm | - | - | - |
| 1777693414 | 10.56° C | 77% | 872.3 hPa | 0 mm | - | - | - |
| 1777692455 | 10.56° C | 76% | 872.4 hPa | 0 mm | - | - | - |
| 1777691496 | 10.56° C | 72% | 872.4 hPa | 0 mm | - | - | - |
| 1777690534 | 10.56° C | 76% | 872.5 hPa | 0 mm | - | - | - |
* Rain latest hour (hover to see other rain measurements)
** Current wind speed in m/s (hover to see current wind gust speed)